OBJECT F, 68696

Orbit data source: Space-Track

You're viewing an Uncataloged Satellite

Recently launched and/or uncataloged satellites may have evolving metadata. Metadata may include but not limited to: Owner, Maufacturer, Bus, Motor, and Mission.

OBJECT F, 68696 is a satellite owned by Changguang WJ (CN) in SSO that was launched on Tue, 14 Apr 2026 UTC via a LIJIAN-1 launch vehicle from the Jiuquan Satellite Launch Center, China (JSC). Unknown objects in Earth's orbit typically refer to objects detected orbiting the Earth but have not yet been identified or cataloged. These objects could be anything from previously untracked satellites, spent rocket stages, debris from satellite collisions, or even natural meteoroids temporarily captured by Earth's gravity.

Loading next visibility...
Identifier
68696, 2026-080F
Orbit
SSO
Country
Flag of CNCN / PRC
Related business
Manufacturer
Changguang WJ
Mission
Operational spacecraft
Bus & Motor
JL-1GF07, Unknown motor
Mass
~50 kg wet, ~50 kg dry
Launch date (UTC)
2026-04-14 (1 month ago)
Launch vehicle
LIJIAN-1
Launch site
Jiuquan Satellite Launch Center, China (JSC)
Object type
Unknown
Shape & HBR
Unknown shape, 1.1 m
Radar Cross Section
RCS unknown

Expand to show TLE details & history
Last TLE update: 11 hours ago

TLE from 11 hours ago
0 OBJECT F
1 68696U 26080F   26138.54835263  .00004062  00000-0  25518-3 0  9993
2 68696  97.6618 214.1751 0015794 161.3969 198.7840 15.09738048  5159
Epoch: 2026-05-18T13:09Z
TLE epoch observation values (Epoch: 2026-05-18T13:09:37.667Z)
Latitude
-0.00005°
Longitude
140.53313°
Altitude
550.413 km
Speed
7.581 km/s
True Right ascension
14h 16m 42s
True Declination
0° 00' 00"
Sunlit
Object was in full shadow at epoch
Visualization orbit readout
Latitude
Unknown
Longitude
Unknown
Altitude
Unknown
Speed
Unknown
Apparent Right ascension
Unknown
Apparent Declination
Unknown
Sunlit
N/A
Visualization observer readout
Local Sidereal Time
09:25:32
Azimuth
Unknown
Elevation
Unknown
Doppler factor
Unknown
Orbital elements
Apogee altitude
544.907 km
Perigee altitude
523.073 km
Semi-major axis
6,912.127 km
Eccentricity
0.00158
Inclination
97.6618°
RAAN
214.1751°
Arg. of periapsis
161.3969°
True anomaly
198.72583°
Mean anomaly
198.784°
Eccentric anomaly
198.7549°
Mean motion
3.77681 °/min
Orbital period
95.32 mins
BSTAR
0.00025518
Loading maneuver chart data...
Computing Atmospheric mass density...
Loading historical data...
Loading historical data...
Loading historical data...
Loading historical data...
Loading historical data...
Loading historical data...
Loading historical data...

Documentation

Showing up to 5 results
|